Heubes-Wetterstation in 44289 Dortmund
Heubes-Wetterstation

Messwerte der letzten 60 Minuten im Minuten-Intervall (Wetterstation 44289 Dortmund)

Datum & Uhrzeit Temp. Feucht. Wind-Ø Böen Sekt.  Regen Rate Luftdruck
26.05.2020 - 08:129.7 °C93%1 km/h 5 km/h N0.0 mm 0.0 mm 1034.5 hPa, gleichbleibend
26.05.2020 - 08:119.7 °C93%1 km/h 1 km/h O-SO0.0 mm 0.0 mm 1034.5 hPa, gleichbleibend
26.05.2020 - 08:109.7 °C93%1 km/h 1 km/h O-SO0.0 mm 0.0 mm 1034.5 hPa, gleichbleibend
26.05.2020 - 08:099.6 °C93%1 km/h 1 km/h O-SO0.0 mm 0.0 mm 1034.5 hPa, gleichbleibend
26.05.2020 - 08:089.6 °C93%1 km/h 1 km/h O-SO0.0 mm 0.0 mm 1034.5 hPa, gleichbleibend
26.05.2020 - 08:079.6 °C93%1 km/h 1 km/h O-SO0.0 mm 0.0 mm 1034.5 hPa, gleichbleibend
26.05.2020 - 08:069.4 °C93%1 km/h 3 km/h O-SO0.0 mm 0.0 mm 1034.5 hPa, gleichbleibend
26.05.2020 - 08:059.4 °C94%1 km/h 3 km/h O-SO0.0 mm 0.0 mm 1034.5 hPa, gleichbleibend
26.05.2020 - 08:049.3 °C93%0 km/h 5 km/h O-NO0.0 mm 0.0 mm 1034.5 hPa, gleichbleibend
26.05.2020 - 08:039.3 °C93%0 km/h 5 km/h O-NO0.0 mm 0.0 mm 1034.5 hPa, gleichbleibend
26.05.2020 - 08:029.3 °C94%0 km/h 3 km/h NO0.0 mm 0.0 mm 1034.5 hPa, gleichbleibend
26.05.2020 - 08:019.2 °C94%0 km/h 7 km/h NO0.0 mm 0.0 mm 1034.5 hPa, gleichbleibend
26.05.2020 - 08:009.2 °C94%0 km/h 3 km/h NO0.0 mm 0.0 mm 1034.4 hPa, gleichbleibend
26.05.2020 - 07:599.2 °C94%0 km/h 0 km/h O0.0 mm 0.0 mm 1034.4 hPa, gleichbleibend
26.05.2020 - 07:589.1 °C94%0 km/h 0 km/h O0.0 mm 0.0 mm 1034.4 hPa, gleichbleibend
26.05.2020 - 07:579.1 °C94%0 km/h 0 km/h NO0.0 mm 0.0 mm 1034.4 hPa, gleichbleibend
26.05.2020 - 07:569.0 °C94%0 km/h 0 km/h N-NW0.0 mm 0.0 mm 1034.4 hPa, gleichbleibend
26.05.2020 - 07:558.9 °C94%0 km/h 0 km/h N-NW0.0 mm 0.0 mm 1034.4 hPa, langsam steigend
26.05.2020 - 07:548.9 °C94%0 km/h 0 km/h N-NW0.0 mm 0.0 mm 1034.3 hPa, gleichbleibend
26.05.2020 - 07:538.8 °C94%0 km/h 0 km/h N-NW0.0 mm 0.0 mm 1034.3 hPa, gleichbleibend
26.05.2020 - 07:528.8 °C94%0 km/h 0 km/h N-NW0.0 mm 0.0 mm 1034.3 hPa, gleichbleibend
26.05.2020 - 07:518.8 °C94%0 km/h 0 km/h N-NW0.0 mm 0.0 mm 1034.3 hPa, gleichbleibend
26.05.2020 - 07:508.8 °C94%0 km/h 0 km/h N-NW0.0 mm 0.0 mm 1034.3 hPa, gleichbleibend
26.05.2020 - 07:498.8 °C94%0 km/h 0 km/h N-NW0.0 mm 0.0 mm 1034.3 hPa, gleichbleibend
26.05.2020 - 07:488.7 °C94%0 km/h 0 km/h N-NW0.0 mm 0.0 mm 1034.3 hPa, gleichbleibend
26.05.2020 - 07:478.7 °C94%0 km/h 0 km/h N-NW0.0 mm 0.0 mm 1034.3 hPa, gleichbleibend
26.05.2020 - 07:468.7 °C94%0 km/h 0 km/h N-NW0.0 mm 0.0 mm 1034.3 hPa, gleichbleibend
26.05.2020 - 07:458.6 °C94%0 km/h 0 km/h N-NW0.0 mm 0.0 mm 1034.3 hPa, gleichbleibend
26.05.2020 - 07:448.6 °C94%0 km/h 0 km/h N-NW0.0 mm 0.0 mm 1034.3 hPa, gleichbleibend
26.05.2020 - 07:438.6 °C94%0 km/h 0 km/h N-NW0.0 mm 0.0 mm 1034.3 hPa, gleichbleibend
26.05.2020 - 07:428.5 °C94%0 km/h 0 km/h N-NW0.0 mm 0.0 mm 1034.3 hPa, gleichbleibend
26.05.2020 - 07:418.4 °C94%0 km/h 0 km/h N-NW0.0 mm 0.0 mm 1034.3 hPa, gleichbleibend
26.05.2020 - 07:408.4 °C94%0 km/h 0 km/h N-NW0.0 mm 0.0 mm 1034.3 hPa, gleichbleibend
26.05.2020 - 07:398.3 °C94%0 km/h 0 km/h N-NW0.0 mm 0.0 mm 1034.3 hPa, gleichbleibend
26.05.2020 - 07:388.3 °C94%0 km/h 0 km/h N-NW0.0 mm 0.0 mm 1034.3 hPa, gleichbleibend
26.05.2020 - 07:378.3 °C94%0 km/h 0 km/h N-NW0.0 mm 0.0 mm 1034.3 hPa, gleichbleibend
26.05.2020 - 07:368.2 °C94%0 km/h 0 km/h N-NW0.0 mm 0.0 mm 1034.2 hPa, gleichbleibend
26.05.2020 - 07:358.2 °C94.5%0 km/h 0 km/h N-NW0.0 mm 0.0 mm 1034.2 hPa, gleichbleibend
26.05.2020 - 07:348.2 °C94%0 km/h 0 km/h N-NW0.0 mm 0.0 mm 1034.3 hPa, gleichbleibend
26.05.2020 - 07:338.2 °C94%0 km/h 0 km/h N-NW0.0 mm 0.0 mm 1034.2 hPa, gleichbleibend
26.05.2020 - 07:328.1 °C94%0 km/h 0 km/h N-NW0.0 mm 0.0 mm 1034.3 hPa, gleichbleibend
26.05.2020 - 07:318.1 °C94%0 km/h 0 km/h N-NW0.0 mm 0.0 mm 1034.3 hPa, gleichbleibend
26.05.2020 - 07:308.0 °C95%0 km/h 0 km/h N-NW0.0 mm 0.0 mm 1034.3 hPa, gleichbleibend
26.05.2020 - 07:297.9 °C95%0 km/h 0 km/h N-NW0.0 mm 0.0 mm 1034.3 hPa, gleichbleibend
26.05.2020 - 07:287.9 °C94.5%0 km/h 0 km/h N-NW0.0 mm 0.0 mm 1034.3 hPa, gleichbleibend
26.05.2020 - 07:277.8 °C94%0 km/h 0 km/h N-NW0.0 mm 0.0 mm 1034.3 hPa, gleichbleibend
26.05.2020 - 07:267.8 °C94%0 km/h 0 km/h N-NW0.0 mm 0.0 mm 1034.3 hPa, gleichbleibend
26.05.2020 - 07:257.8 °C94%0 km/h 0 km/h N-NW0.0 mm 0.0 mm 1034.3 hPa, gleichbleibend
26.05.2020 - 07:247.7 °C94%0 km/h 0 km/h N-NW0.0 mm 0.0 mm 1034.3 hPa, gleichbleibend
26.05.2020 - 07:237.7 °C94%0 km/h 0 km/h N-NW0.0 mm 0.0 mm 1034.3 hPa, gleichbleibend
26.05.2020 - 07:227.7 °C94%0 km/h 0 km/h N-NW0.0 mm 0.0 mm 1034.3 hPa, gleichbleibend
26.05.2020 - 07:217.6 °C94%0 km/h 0 km/h N-NW0.0 mm 0.0 mm 1034.3 hPa, gleichbleibend
26.05.2020 - 07:207.6 °C94%0 km/h 0 km/h N-NW0.0 mm 0.0 mm 1034.3 hPa, gleichbleibend
26.05.2020 - 07:197.5 °C94%0 km/h 0 km/h N-NW0.0 mm 0.0 mm 1034.3 hPa, langsam fallend
26.05.2020 - 07:187.5 °C94%0 km/h 0 km/h N-NW0.0 mm 0.0 mm 1034.4 hPa, gleichbleibend
26.05.2020 - 07:177.4 °C94%0 km/h 0 km/h N-NW0.0 mm 0.0 mm 1034.4 hPa, gleichbleibend
26.05.2020 - 07:167.4 °C94%0 km/h 0 km/h N-NW0.0 mm 0.0 mm 1034.4 hPa, gleichbleibend
26.05.2020 - 07:157.3 °C94%0 km/h 0 km/h N-NW0.0 mm 0.0 mm 1034.4 hPa, langsam steigend
26.05.2020 - 07:147.3 °C94%0 km/h 0 km/h N-NW0.0 mm 0.0 mm 1034.3 hPa, gleichbleibend
26.05.2020 - 07:137.3 °C94%0 km/h 0 km/h N-NW0.0 mm 0.0 mm 1034.3 hPa, gleichbleibend